Showing default

LANDSAT 1 (ERTS 1), 6126

Orbit data source: Space-Track

LANDSAT 1 (ERTS 1), 6126 is a payload satellite owned by GSFC (US) in SSO that was launched on Sun, 23 Jul 1972 UTC via a DELTA 0900 launch vehicle from the Air Force Western Test Range (AFWTR). Payload-class satellites include a variety of spacecraft equipped with specific instruments for various scientific and technological missions. These include communications satellites like Starlink; space stations such as the ISS; scientific satellites like the Hubble; Earth observation satellites from companies like Planet Labs, Umbra, and HawkEye 360; GPS; miniature CubeSats for education and research; and military/defense satellites.

Loading next visibility...
Identifier
6126, 1972-058A
Orbit
SSO
Country
Flag of USUS
Related business
Manufacturer
GE/MSVD
Mission
Non-operational spacecraft
Bus & Motor
NIMBUS, Unknown motor
Mass
891 kg wet, 891 kg dry
Launch date (UTC)
1972-07-23 (53 years ago)
Launch vehicle
DELTA 0900
Launch site
Air Force Western Test Range (AFWTR)
Object type
Payload
Rocket body
Debris
Shape & HBR
Unknown
Radar Cross Section
Large (>1 m²)

Expand to show TLE details & history
Last TLE update: 8 hours ago

TLE from 8 hours ago
0 LANDSAT 1 (ERTS 1)
1 06126U 72058A   25340.91633406  .00000298  00000-0  24358-3 0  9997
2 06126  99.3559   2.2510 0008913  62.6560 297.5508 13.97814644721095
Epoch: 2025-12-06T21:59Z
TLE epoch observation values (Epoch: 2025-12-06T21:59:31.262Z)
Latitude
-0.00008°
Longitude
-43.56645°
Altitude
901.238 km
Speed
7.403 km/s
True Right ascension
00h 09m 00s
True Declination
0° 00' 00"
Sunlit
Object was in daylight at epoch
Visualization orbit readout
Latitude
Unknown
Longitude
Unknown
Altitude
Unknown
Speed
Unknown
Apparent Right ascension
Unknown
Apparent Declination
Unknown
Sunlit
N/A
Visualization observer readout
Local Sidereal Time
04:25:43
Azimuth
Unknown
Elevation
Unknown
Doppler factor
Unknown
Orbital elements
Apogee altitude
905.078 km
Perigee altitude
892.107 km
Semi-major axis
7,276.73 km
Eccentricity
0.00089
Inclination
99.3559°
RAAN
2.251°
Arg. of periapsis
62.656°
True anomaly
297.4602°
Mean anomaly
297.5508°
Eccentric anomaly
297.5055°
Mean motion
3.49654 °/min
Orbital period
102.96 mins
BSTAR
0.00024358
Loading maneuver chart data...
Computing Atmospheric mass density...

Documentation

Showing up to 5 results
|